Location: ????????
(55.6333°N, 37.7000°E)
Time: 16:56:45
(UTC+00:00)

Cosmos 1805 - Pass Details

Date: 19 May 2025
Orbit: 448 x 452 km, 82.5° (Epoch: 20 June)

Event Time Altitude Azimuth Distance (km) Brightness Sun altitude
Rises 19:10:02 0° 350° (N) 2,473 8.1 -9.1°
Reaches altitude 10° 19:12:08 10° 353° (N) 1,594 6.9 -9.3°
Maximum altitude 19:15:35 63° 76° (ENE) 510 3.1 -9.5°
Enters shadow 19:18:25 14° 156° (SSE) 1,340 4.6 -9.7°
